Regional Weather Roundup
Issued by NWS Jackson, KY

Home | Current Version | Previous Version | Graphics & Text | Print | Product List | Glossary On
Versions: 1 2 3 4 5 6 7 8 9 10 11 12 13 14 15 16 17 18 19 20 21 22 23 24 25 26 27 28 29 30 31 32 33 34 35 36 37 38 39 40 41 42 43 44 45 46 47 48 49 50
000
ASUS43 KJKL 082310
RWRJKL

EAST KENTUCKY HOURLY WEATHER ROUNDUP
NATIONAL WEATHER SERVICE JACKSON KY
600 PM EST MON FEB 08 2016

NOTE: "FAIR" INDICATES FEW OR NO CLOUDS BELOW 12,000 FEET WITH
NO SIGNIFICANT WEATHER AND/OR OBSTRUCTIONS TO VISIBILITY.

* THESE REPORTS ARE NOT UNDER NWS QUALITY CONTROL AND MAY NOT
  REPORT WEATHER SUCH AS PRECIPITATION AND FOG.

KYZ079-080-083-085-087-088-110-112-115-119-120-090000
...EASTERN KENTUCKY...

CITY           SKY/WX    TMP DP  RH WIND       PRES   REMARKS
JACKSON        CLOUDY    35  28  75 CALM      29.68R
LONDON         LGT SNOW  33  29  85 W8        29.73R FOG     WCI  26
SOMERSET*      FLURRIES  32  28  86 W8        29.77R WCI  25
MONTICELLO*    LGT SNOW  34  29  82 W10G17    29.78R WCI  26
WILLIAMSBURG*  CLOUDY    32  32 100 CALM      29.75R
MIDDLESBORO*   CLOUDY    36  30  79 SW7       29.73R WCI  31
HARLAN APT*    CLOUDY    34  32  93 CALM      29.70S
HAZARD APT*    MOCLDY   N/A N/A N/A CALM      29.69
BLACK MTN*       N/A     25  25 100 CALM        N/A
BIG SANDY*     CLOUDY    35  31  85 SW5       29.68S WCI  31
MOREHEAD APT*  CLOUDY    36  28  75 VRB7G15   29.69S WCI  30
$$

KYZ035-036-041-042-044-050-067-078-099-090000
...CENTRAL KENTUCKY...

CITY           SKY/WX    TMP DP  RH WIND       PRES   REMARKS
MT STERLING*   SNOW      32  32 100 W10       29.71R VSB 1/2 WCI  24
DANVILLE*      CLOUDY    32  30  93 W14G21    29.74R WCI  22
RICHMOND*      CLOUDY    32  28  86 W14G20    29.73R WCI  22
LEXINGTON      LGT SNOW  32  29  88 W12       29.72R FOG     WCI  23
FRANKFORT      LGT SNOW  32  29  88 W9        29.71R FOG     WCI  24
$$

KYZ091>093-OHZ055-061-077-WVZ005-015-034-035-042-090000
...SOUTHERN OHIO/WEST VIRGINIA...

CITY           SKY/WX    TMP DP  RH WIND       PRES   REMARKS
COVINGTON      LGT SNOW  33  31  92 W9        29.66S VSB 3/4 WCI  25
COLUMBUS       MOCLDY    35  35 100 CALM      29.61S
DAYTON         CLOUDY    35  30  82 NW12      29.63R WCI  27
WILMINGTON     LGT SNOW  32  32 100 W6        29.63S FOG     WCI  26
HUNTINGTON       N/A     36  30  79 SW7       29.66S WCI  30
CHARLESTON     LGT SNOW  33  31  92 W8        29.66R FOG     WCI  26
PINEVILLE*     MIX PCPN  35  31  85 MISG      29.70S
BECKLEY        CLOUDY    31  27  85 W12       29.61R WCI  22
$$

VAZ002-007-008-TNZ017-027-036-066-071-090000
...SOUTHWEST VIRGINIA/EAST TENNESSEE...

CITY           SKY/WX    TMP DP  RH WIND       PRES   REMARKS
BRISTOL        CLOUDY    34  32  92 VRB7      29.70R WCI  28
KNOXVILLE      CLOUDY    40  22  48 W16G28    29.75R WCI  31
OAK RIDGE      CLOUDY    40  27  59 VRB6      29.77R
CROSSVILLE     FLURRIES  36  23  59 W13G21    29.74R WCI  27
NASHVILLE      FLURRIES  33  26  75 W10       29.87R WCI  25
$$

...KEY TO REMARKS...
VSB - VISIBILITY IN MILES
WCI - WIND CHILL INDEX
HX  - HEAT INDEX

$$



USA.gov is the U.S. government's official web portal to all federal, state and local government web resources and services.